Regional Weather Roundup
Issued by NWS

Home | Current Version | Previous Version | Graphics & Text | Print | Product List | Glossary On
Versions: 1 2 3 4 5 6 7 8 9 10 11 12 13 14 15 16 17 18 19 20 21 22 23 24 25 26 27 28 29 30 31 32 33 34 35 36 37 38 39 40 41 42 43 44 45 46 47 48 49 50
000
ASUS43 KBIS 231120
RWRND

NORTH DAKOTA REGIONAL WEATHER ROUNDUP
NATIONAL WEATHER SERVICE BISMARCK ND
600 AM CDT WED APR 23 2014

NOTE: "FAIR" INDICATES FEW OR NO CLOUDS BELOW 12,000 FEET WITH NO
SIGNIFICANT WEATHER AND/OR OBSTRUCTIONS TO VISIBILITY.


NDZ001>003-009>011-017-231200-
NORTHWEST NORTH DAKOTA

CITY           SKY/WX    TMP DP  RH WIND       PRES   REMARKS
WILLISTON      CLOUDY    52  38  58 SE30G41   29.41F
MINOT          LGT RAIN  44  39  82 E18       29.65F
MINOT AFB      LGT RAIN  45  41  87 SE22G30   29.65F
$$

NDZ018>021-031>035-040>046-231200-
SOUTHWEST NORTH DAKOTA

CITY           SKY/WX    TMP DP  RH WIND       PRES   REMARKS
BISMARCK       CLOUDY    51  39  63 E20G28    29.63F
DICKINSON      CLOUDY    48  35  60 E24G33    29.43F
GARRISON         N/A     48  42  80 SE21      29.62S
HETTINGER ARPT MOCLDY    50  35  56 E21       29.44F
$$

NDZ004>008-012>016-024-026-027-054-231200-
NORTHEAST NORTH DAKOTA

CITY           SKY/WX    TMP DP  RH WIND       PRES   REMARKS
GRAND FORKS    CLOUDY    44  28  53 SE18      29.92F
GRND FRKS AFB  CLOUDY    42  29  61 SE14      29.91F
DEVILS LAKE    CLOUDY    43  28  56 SE22      29.80F
$$

NDZ022-023-025-028>030-036>039-047>053-231200-
SOUTHEAST NORTH DAKOTA

CITY           SKY/WX    TMP DP  RH WIND       PRES   REMARKS
FARGO          CLOUDY    48  30  49 SE15      29.92F
JAMESTOWN      LGT RAIN  44  42  93 SE23G30   29.79F
$$




USA.gov is the U.S. government's official web portal to all federal, state and local government web resources and services.